Hourly Data Report for July 08, 2021

KUGLUKTUK A
NUNAVUT
Current Station Operator: NAVCAN

67°49'00.000" N
115°08'38.000" W
22.60 m
2300903
71938
YCO

Download Data

Hourly Data (July 2021)
Hourly Data Report for July 8, 2021
TIME
LST
Temp Definition
°C
Dew Point Definition
°C
Rel Hum Definition
%
Precip. Amount Definition
mm

Wind Dir Definition
10's deg

Wind Spd Definition
km/h
Visibility Definition
km
Stn Press Definition
kPa
Hmdx Definition


Wind Chill Definition


Weather Definition


00:00 6.7 5.8 94   36 9 24.1 99.78     LegendNANA
01:00 4.8 4.2 96   2 7 24.1 99.76     LegendNANA
02:00 4.8 4.2 96   3 4 24.1 99.77     Mainly Clear
03:00 5.6 4.9 96   27 3 24.1 99.77     LegendNANA
04:00 6.0 5.2 95   36 2 24.1 99.76     LegendNANA
05:00 7.1 6.0 93   28 3 24.1 99.78     Mainly Clear
06:00 10.2 8.4 89   21 3 24.1 99.77     LegendNANA
07:00 10.8 9.4 91   36 1 24.1 99.77     LegendNANA
08:00 14.6 12.1 85   35 4 24.1 99.77     Mostly Cloudy
09:00 18.8 14.3 75   26 22 24.1 99.75     LegendNANA
10:00 18.0 13.3 74   25 22 24.1 99.77     LegendNANA
11:00 19.6 13.8 69   25 32 24.1 99.81     Mostly Cloudy
12:00 20.1 13.1 64   25 30 24.1 99.87     LegendNANA
13:00 20.1 13.0 63   25 27 24.1 99.91     LegendNANA
14:00 19.6 13.6 68   26 30 24.1 99.97     Mostly Cloudy
15:00 14.7 11.7 82   35 18 24.1 100.15     LegendNANA
16:00 16.8 12.6 76   34 11 24.1 100.22     LegendNANA
17:00 18.0 12.4 69   35 9 24.1 100.28     Mostly Cloudy
18:00 12.8 9.9 83   5 18 24.1 100.33     LegendNANA
19:00 12.8 9.6 81   5 14 24.1 100.39     LegendNANA
20:00 12.6 9.9 83   11 16 24.1 100.43     Mainly Clear
21:00 12.6 9.5 82   10 15 24.1 100.47     LegendNANA
22:00 12.2 9.4 83   10 13 24.1 100.52     LegendNANA
23:00 11.2 9.4 88   10 10 24.1 100.55     Clear

Notes on Data Quality.

Legend

  • E = Estimated
  • M = Missing
  • NA = Not Available*
  • [empty] = Indicates an unobserved value
Date modified: